{"data":{"norad_id":67794,"epoch":"2026-09-20T14:29:19.168512Z","epoch_age_seconds":77539,"freshness":"FRESH","line1":"1 67794U 26030AG  26263.60369408 -.00001050  00000+0 -10868-3 0  9992","line2":"2 67794  51.8999  46.1913 0000971  98.4890 261.6183 14.79927861 34395","mean_motion":14.79927861,"eccentricity":9.71e-5,"inclination_deg":51.8999,"raan_deg":46.1913,"arg_perigee_deg":98.489,"mean_anomaly_deg":261.6183,"bstar":-0.00010868,"rev_number":3439,"period_min":97.302040048559,"perigee_km":628.87140518398,"apogee_km":630.232298359,"semimajor_km":7007.6888517715,"source":"CELESTRAK","updated_at":"2026-09-21T09:00:16.858917Z"}}